Content
SEND FEEDBACK

Daily
Averages
Monthly
Summary
United States of America

CASTLE HAYNE, NORTH CAROLINA


Home > North America > United States > North Carolina
Elevation: 35 feet     Latitude: 34 19N     Longitude: 077 55W

WEATHER
 
SELECT A DAY
Number of Records: 211,723;   Date Range: 1/1/95 - 10/1/14
 
SHARE

PRINT THIS DATA

[ ← Previous Day ]
WEATHER ALMANAC - JANUARY 24, 2013
[ Next Day → ]
[ °C ]   °F
Weather ElementAverageHighLow
Temperature39.7 °F48 °F (8:53 am)25 °F (11:53 pm)
Dewpoint21.9 °F37 °F (7:53 am)7 °F (8:53 pm)
Humidity50.4 %71 % (1:53 am)35 % (1:53 pm)
Barometer30.25 in30.52 in (11:53 pm)30.01 in (4:53 am)
Wind Speed13.5 mph20.7 mph (12:53 pm)
Wind Gust28.8 mph (10:53 am)
Weather ElementAverage
Visibility10 mi
Wind DirectionSSE (147.4 °)

Weather ElementTotal
Precipitation---
Heating Degree Days28.5 (Base 65)
Averaged from 23 records on January 24, 2013
WEATHER CONDITIONS BREAKOUT
WIND DIRECTION BREAKOUT
WEATHER BY HOUR - JANUARY 24, 2013
[ °C ]   °F
Local TimeTemperatureDewpointHumidityBarometerVisibilityWind DirectionWind SpeedGust SpeedPrecipitationEventsConditions
1:53 AM44.1 °F35.1 °F71 %30.08 in10.0 miSW (220°)9.2 mphClear
2:53 AM45.0 °F33.1 °F63 %30.06 in10.0 miSW (220°)12.7 mphClear
3:53 AM46.0 °F33.1 °F61 %30.03 in10.0 miWSW (240°)10.4 mphClear
4:53 AM46.0 °F34.0 °F63 %30.01 in10.0 miWSW (250°)13.8 mphClear
5:53 AM46.0 °F35.1 °F66 %30.02 in10.0 miWSW (250°)12.7 mphClear
6:53 AM44.6 °F35.6 °F71 %30.03 in10.0 miWest (260°)12.7 mphClear
7:53 AM46.9 °F37.0 °F68 %30.06 in10.0 miWest (270°)13.8 mphClear
8:53 AM48.0 °F37.0 °F66 %30.09 in10.0 miWNW (290°)12.7 mphClear
9:53 AM45.0 °F30.9 °F58 %30.15 in10.0 miNNW (330°)19.6 mph27.6 mphPartly Cloudy
10:53 AM46.9 °F24.1 °F41 %30.19 in10.0 miNorth (360°)16.1 mph28.8 mphClear
11:53 AM45.0 °F21.9 °F40 %30.21 in10.0 miNorth (10°)19.6 mph26.5 mphClear
12:53 PM45.0 °F19.0 °F36 %30.23 in10.0 miNorth (350°)20.7 mph27.6 mphClear
1:53 PM46.0 °F19.9 °F35 %30.26 in10.0 miNorth (10°)16.1 mph26.5 mphClear
2:53 PM42.1 °F16.0 °F35 %30.30 in10.0 miNorth (10°)16.1 mph28.8 mphClear
3:53 PM41.0 °F16.0 °F36 %30.34 in10.0 miNorth (10°)15.0 mph21.9 mphClear
4:53 PM36.0 °F14.0 °F41 %30.38 in10.0 miNNE (30°)20.7 mph27.6 mphClear
5:53 PM33.1 °F12.0 °F42 %30.43 in10.0 miNNE (20°)15.0 mphClear
6:53 PM30.9 °F10.0 °F42 %30.46 in10.0 miNNE (30°)15.0 mphClear
7:53 PM28.9 °F8.1 °F41 %30.47 in10.0 miENE (60°)6.9 mphClear
8:53 PM28.9 °F7.0 °F40 %30.50 in10.0 miNE (40°)8.1 mphClear
9:53 PM27.0 °F8.1 °F45 %30.51 in10.0 miNE (40°)9.2 mphClear
10:53 PM26.1 °F8.1 °F47 %30.51 in10.0 miNE (40°)9.2 mphClear
11:53 PM25.0 °F9.0 °F51 %30.52 in10.0 miNE (50°)4.6 mphClear
Hourly data recorded from KILM, located miles away from Castle Hayne, North Carolina







STORIES FROM OUR PARTNERS